User: anonymous   Login
Location: Mentone
(34.5413°N, 85.5351°W)
Time: 15:00:13
(UTC-06:00)
Language:

ERBS - Orbit

View from above orbital plane
View from above orbital plane
View from above satellite
View from above satellite

Ground track
Ground track

The orbit data is extracted from the following two-line orbital elements,

1 15354U 84108B   16045.06693900  .00008384  00000-0  22059-3 0  9992
2 15354  57.0097  78.3163 0006967 248.1920 111.8392 15.39438982722761
Epoch (UTC): 14 February 2016 01:36:23
Eccentricity: 0.0006967
inclination: 57.0097°
perigee height: 443 km
apogee height: 452 km
right ascension of ascending node: 78.3163°
argument of perigee: 248.1920°
revolutions per day: 15.39438982
mean anomaly at epoch: 111.8392°
orbit number at epoch: 72276

The dashed part of the orbit path shows where the satellite is in the earth's shadow,  

DLR